Regional Weather Roundup
Issued by NWS

Home | Current Version | Previous Version | Graphics & Text | Print | Product List | Glossary On
Versions: 1 2 3 4 5 6 7 8 9 10 11 12 13 14 15 16 17 18 19 20 21 22 23 24 25 26 27 28 29 30 31 32 33 34 35 36 37 38 39 40 41 42 43 44 45 46 47 48 49 50
000
ASUS44 KMEG 260010
RWRTN
TENNESSEE HOURLY STATE WEATHER ROUNDUP
NATIONAL WEATHER SERVICE MEMPHIS TN
600 PM CST TUE NOV 25 2014

TNZ002-004-019-021-049-052-054-088>092-260100-
WEST TENNESSEE

CITY           SKY/WX    TMP DP  RH WIND       PRES   REMARKS
MEMPHIS INTL   MOCLDY    42  26  53 NW3       30.19R
NWS MEMPHIS      N/A     40 N/A N/A MISG        N/A
JACKSON        CLOUDY    41  27  57 NW3       30.18R
DYERSBURG      MOCLDY    39  19  45 CALM      30.20R
UNION CITY     CLEAR     36  28  75 CALM      30.17R
PARIS          CLEAR     37  25  60 CALM      30.17R
HUNTINGDON     CLOUDY    38  23  55 CALM      30.17R
LEXINGTON      CLEAR     43  27  52 CALM      30.16R
SAVANNAH       CLEAR     41  32  70 CALM      30.17R
$$

TNZ008-025-027-028-033-062-065-066-260100-
NORTH MIDDLE TENNESSEE

CITY           SKY/WX    TMP DP  RH WIND       PRES   REMARKS
NASHVILLE      CLOUDY    44  26  49 N5        30.15R
CLARKSVILLE    CLOUDY    39  28  64 NW5       30.15R
SMYRNA         CLOUDY    43  28  55 N6        30.16R
COOKEVILLE     CLEAR     45  32  61 NW3       30.11R
CROSSVILLE     CLOUDY    47  27  45 NW7       30.07S
$$

TNZ061-075-076-078-094-096-097-260100-
SOUTH MIDDLE TENNESSEE

CITY           SKY/WX    TMP DP  RH WIND       PRES   REMARKS
FAYETTEVILLE   CLEAR     45  28  53 MISG      30.12R
TULLAHOMA      CLEAR     45  28  53 N7        30.13R
WINCHESTER     CLEAR     46  30  53 N3        30.12R
MCMINNVILLE    CLEAR     45  30  57 CALM      30.12R
COLUMBIA       CLEAR     45  27  49 CALM      30.14R
SHELBYVILLE    CLEAR     45  32  61 N10       30.14R
$$

TNZ017-018-042-046-047-260100-
NORTHEAST TENNESSEE

CITY           SKY/WX    TMP DP  RH WIND       PRES   REMARKS
TRI CITIES     MOCLDY    42  31  64 N3        30.08R
ELIZABETHTON   CLEAR     39  28  65 CALM      30.08S
$$

TNZ012-013-036-069-073-074-260100-
CENTRAL EAST TENNESSEE

CITY           SKY/WX    TMP DP  RH WIND       PRES   REMARKS
KNOXVILLE      CLOUDY    48  30  49 NE6       30.03F
OAK RIDGE      CLOUDY    51  31  46 CALM      30.05F
GATLINBURG     CLEAR     46  30  53 E3        30.04F
MORRISTOWN     CLEAR     46  30  53 CALM      30.07F
$$

TNZ083-085-099-260100-
SOUTHEAST TENNESSEE

CITY           SKY/WX    TMP DP  RH WIND       PRES   REMARKS
CHATTANOOGA    MOCLDY    53  31  42 NW7       30.09R
$$

SKY/WX REPORTED AS FAIR MEANS FEW OR NO CLOUDS BELOW
12 THOUSAND FEET.



USA.gov is the U.S. government's official web portal to all federal, state and local government web resources and services.